Find Starlink 30349

NORAD ID: 57713 Int'l Des: 2023-129 Owner: SPXS Country: US Constellation: starlink operational
LEOCIRCULAR

Live-Position

3D-Globus wird geladen...

Über Starlink 30349

Beschreibung wird geladen...

Nächste Überflüge

Passes for default location (London). Set your location on the main map for personalized predictions.

Höhenverlauf

Loading altitude history...

Zweizeiliger Elementsatz

1 57713U 23129R 26127.49398561 .00001450 00000-0 62220-4 0 9999
2 57713 43.0019 145.9969 0000943 275.0984 84.9760 15.27576600149531
Epoch: 7. Mai 2026 • Age: 11 hours

Aktueller Status

Höhe 488.5 km
Geschwindigkeit 7.62 km/s
Subsatellitenpunkt -24.24°S, 91.23°W
Startdatum 27. Aug. 2023
Alter 2.6 years
Typ internet

Technische Details

Klassifizierung Payload
Masse 730.00 kg
Trockenmasse 700.00 kg
Gesamtmasse 730.00 kg
Länge 0.30 m
Durchmesser 4.10 m
Spannweite 29.00 m
Form Box + pan
Hersteller SPXS
Bus-Typ Starlink V2M
Phasenstatus In Orbit
Besitzer/Staat SPXS/US

Most Searched